Weather in Talyzino

Russia / Vladimir Oblast     55°46′26″N   41°52′55″E
temp.,
°C
wind,
m/s
gust,
m/s
humid.,
%
clouds,
%
prec.,
mm/h
press.,
hPa
HPBL,
m
25 february, thu
thu2500:00−17s51095100 0.4 1031381
03:00−17s51096100 0.8 1028440
06:00−16s61195100 2.1 1024455
09:00−13s71394100 3.8 1019461
12:00−10ssw61195100 3.3 1015452
15:00−7ssw4695100 4.8 1012255
18:00−4ssw2397100 0.4 1011107
21:000nw2399100 0.6 1012113
26 february, fri
fri2600:00+1w4899100 0.1 1011278
03:00+1w3897100 0.1 1012333
06:00+1sw24100100 0.3 1009125
09:00+1sw36100100 0.9 1008149
12:00+2sw511100100 1.1 1004323
15:00+2sw51499100 1.6 1001404
18:00+3w615100100 1.3 998603
21:00+2w6159198 1.8 999754
27 february, sat
sat2700:00+1w6139199 0.1 997889
03:00+1wnw71397100 0.4 997804
06:00+1w71397100 0.2 996751
09:000wnw71397100 0.9 997799
12:00−3nnw61190100 1.4 998693
15:00−6nnw6988100 1.7 1001816
18:00−8nnw51092100 0.1 1004679
21:00−10n3993100 0.3 1008499
28 february, sun
sun2800:00−12nnw3695100 0.1 1009201
03:00−14nnw379593 0.1 1011197
06:00−15nnw369528 0.0 1013167
09:00−14nnw479220 0.0 1014335
12:00−10nnw478867 0.0 1016510
15:00−8nnw478883 0.1 1017642
18:00−9nnw3892100 0.1 1018353
21:00−11n3794100 0.1 1021212
1 march, mon
mon100:00−13nnw349572 0.0 102262
03:00−14nnw339541 0.0 102442
06:00−14nnw239655 0.0 102525
09:00−12nw129671 0.0 102692
12:00−6wnw248994 0.0 1026368
15:00−3wsw358992 0.0 1025547
18:00−3wsw4890100 0.0 1023409
21:00−3wsw51193100 0.1 1021445